Location: *
(53.9002°N, 27.5624°E)
Time: 14:09:25
(UTC+00:00)

SPOT 3 Rocket - Pass Details

Date: 12 November 2019
Orbit: 778 x 795 km, 98.8° (Epoch: 11 December)

Event Time Altitude Azimuth Distance (km) Brightness Sun altitude
Exits shadow 17:15:42 37° 14° (NNE) 1,237 4.4 -26.3°
Drops below altitude 10° 17:19:03 10° 351° (N) 2,378 6.2 -26.7°
Sets 17:21:25 0° 347° (NNW) 3,311 7.0 -27.1°
